Date,TemperatureHighF,TemperatureAvgF,TemperatureLowF,DewpointHighF,DewpointAvgF,DewpointLowF,HumidityHigh,HumidityAvg,HumidityLow,PressureMaxIn,PressureMinIn,WindSpeedMaxMPH,WindSpeedAvgMPH,GustSpeedMaxMPH,PrecipitationSumIn
2013-1-1,37.0,29.4,13.6,27.5,19.8,8.5,80,67,56,30.00,29.78,9,0,11,0.00
2013-1-2,31.0,20.0,7.5,19.8,12.1,3.0,89,72,54,30.23,29.97,13,1,16,0.03
2013-1-3,18.0,9.9,0.0,99.9,3.0,-4.5,81,70,59,30.26,30.00,11,1,12,0.00
2013-1-4,39.7,28.2,17.2,26.7,21.0,11.4,88,75,56,30.01,29.86,18,1,20,0.14
2013-1-5,38.6,33.0,20.9,27.9,23.3,17.5,88,68,54,30.27,29.94,13,0,20,0.05
2013-1-6,42.7,33.0,22.0,29.6,26.3,19.0,90,77,59,30.20,29.92,7,0,11,0.05
2013-1-7,36.1,28.7,16.4,31.1,23.2,14.0,94,80,66,30.39,30.00,10,0,15,0.00
2013-1-8,44.0,33.1,23.5,29.7,25.6,21.3,92,75,55,30.38,30.28,0,0,6,0.00
2013-1-9,45.9,31.8,16.4,34.6,25.8,14.4,94,80,50,30.37,30.02,4,0,5,0.00
2013-1-10,45.9,39.3,26.6,30.8,26.3,23.0,87,60,48,30.56,30.14,0,0,0,0.00
2013-1-11,37.9,31.5,23.1,36.5,27.7,21.1,100,86,65,30.55,30.12,1,0,1,0.08
2013-1-12,46.7,40.5,36.4,44.5,39.4,35.6,100,96,90,30.16,30.09,0,0,0,0.00
2013-1-13,47.8,42.9,36.7,45.7,41.9,35.9,98,96,92,30.13,29.95,0,0,1,0.00
2013-1-14,50.6,43.9,35.3,47.6,37.8,25.5,97,80,61,30.32,29.81,1,0,1,0.07
2013-1-15,38.6,33.7,28.9,27.5,24.9,23.3,88,70,58,30.37,30.24,0,0,1,0.00
2013-1-16,33.1,31.1,28.7,32.1,28.9,23.8,96,92,72,30.24,29.82,0,0,0,0.02
2013-1-17,40.2,31.4,24.8,99.9,25.8,11.9,96,79,58,30.16,29.86,14,-2,18,0.34
2013-1-18,26.0,22.2,17.0,12.6,8.4,-0.6,74,55,40,30.43,30.08,17,4,20,0.00
2013-1-19,45.9,36.7,25.1,29.7,22.6,12.0,66,57,47,30.30,29.79,22,7,26,0.02
2013-1-20,49.2,38.6,26.7,34.7,23.7,11.2,70,56,30,30.02,29.60,27,7,29,0.00
2013-1-21,27.7,23.1,17.3,21.1,15.6,10.9,91,73,51,30.08,29.80,12,2,16,0.00
2013-1-22,23.1,18.2,11.5,19.2,2.1,-5.5,87,50,35,30.15,29.80,25,6,25,0.00
2013-1-23,16.8,10.6,5.3,2.9,-1.4,-4.3,82,58,43,30.21,30.13,17,3,21,0.00
2013-1-24,19.6,10.5,1.1,4.4,-1.3,-5.5,79,60,33,30.37,30.16,25,5,29,0.00
2013-1-25,19.4,14.5,7.3,12.9,4.6,-0.3,87,65,49,30.42,30.08,12,2,15,0.00
2013-1-26,24.7,15.6,9.1,11.6,7.5,3.8,88,72,45,30.35,30.06,19,3,22,0.00
2013-1-27,31.1,19.7,6.9,11.6,4.1,0.4,91,54,28,30.52,30.35,17,2,17,0.00
2013-1-28,33.8,25.8,15.3,31.7,20.3,5.5,92,80,58,30.50,29.95,14,2,16,0.00
2013-1-29,39.9,35.1,29.4,37.2,32.6,28.1,100,91,81,30.15,29.96,19,2,19,0.06
2013-1-30,56.2,48.0,38.9,55.5,46.9,36.7,98,96,92,30.06,29.31,17,4,17,0.33
2013-1-31,55.4,43.1,29.6,54.7,32.3,12.4,99,68,41,29.67,28.90,29,6,33,0.79
2013-2-1,31.2,26.4,21.7,18.0,10.9,6.3,72,52,42,30.17,29.66,24,6,25,0.00
2013-2-2,28.2,22.6,15.2,17.7,12.0,7.8,84,65,42,30.24,30.03,18,3,21,0.00
2013-2-3,31.4,23.3,15.5,19.1,16.0,12.9,92,75,50,30.05,29.78,7,1,7,0.00
2013-2-4,30.1,24.1,20.2,19.3,12.6,7.2,89,63,40,29.96,29.78,17,4,22,0.00
2013-2-5,31.6,24.6,19.7,23.8,15.7,11.8,87,69,53,30.02,29.89,7,1,9,0.00
2013-2-6,38.8,29.4,21.2,27.9,18.1,4.4,91,65,35,30.38,29.89,19,3,24,0.00
2013-2-7,30.5,22.8,13.1,15.5,9.6,5.5,85,58,41,30.54,30.36,11,1,11,0.00
2013-2-8,31.7,27.7,24.3,28.8,22.4,13.8,95,81,61,30.37,29.78,19,2,20,0.00
2013-2-9,25.9,21.3,10.9,23.6,14.4,1.6,95,76,50,30.37,29.82,28,7,28,0.00
2013-2-10,30.8,13.9,-4.4,99.9,21.9,-3.6,87,68,39,30.52,30.28,10,1,10,0.09
2013-2-11,42.0,35.2,26.9,39.4,30.6,11.1,96,84,48,30.28,29.65,16,3,17,0.16
2013-2-12,41.2,38.4,35.8,35.6,28.7,23.8,90,68,61,29.95,29.68,18,4,23,0.00
2013-2-13,42.4,36.3,31.3,28.2,24.5,22.8,82,62,49,29.92,29.71,13,2,15,0.00
2013-2-14,42.1,34.1,22.0,28.2,24.9,19.4,92,70,52,29.95,29.71,11,1,12,0.00
2013-2-15,52.5,41.8,32.9,33.9,29.3,25.7,89,62,46,30.01,29.87,16,4,18,0.00
2013-2-16,33.6,30.3,25.9,30.9,21.2,10.3,100,70,50,30.01,29.82,21,4,21,0.01
2013-2-17,26.1,21.7,16.7,12.0,6.4,2.8,61,51,38,29.95,29.67,33,9,33,0.00
2013-2-18,32.9,22.1,12.8,14.1,6.5,1.7,76,52,33,30.20,29.94,20,5,27,0.00
2013-2-19,43.3,31.3,17.9,34.8,24.9,13.1,95,79,51,30.16,29.61,16,3,20,0.12
2013-2-20,34.1,29.6,25.2,31.7,16.9,10.3,91,60,43,29.93,29.66,26,7,29,0.00
2013-2-21,28.6,24.7,21.3,16.8,13.6,11.4,74,62,54,30.37,29.90,20,7,22,0.00
2013-2-22,36.5,29.6,22.1,26.8,21.0,16.5,83,70,58,30.44,30.25,12,2,12,0.00
2013-2-23,37.9,34.9,31.9,36.5,32.1,26.7,96,90,74,30.26,29.86,10,2,11,0.02
2013-2-24,41.2,35.6,33.3,36.6,31.4,25.2,97,85,63,29.98,29.75,16,3,19,0.05
2013-2-25,42.3,35.8,26.8,30.4,27.8,23.8,92,73,57,30.24,29.98,13,2,15,0.00
2013-2-26,45.0,36.6,25.7,33.2,28.3,23.6,95,73,53,30.31,30.02,13,2,16,0.00
2013-2-27,44.2,37.7,32.2,39.9,35.1,27.7,96,91,73,30.03,29.50,16,3,19,0.76
2013-2-28,42.5,38.5,35.7,39.1,36.3,33.3,97,92,83,29.60,29.55,6,1,7,0.13
2013-3-1,42.9,37.3,33.7,34.6,31.4,26.3,92,80,62,29.77,29.60,16,3,19,0.01
2013-3-2,37.6,32.5,27.4,26.3,24.6,21.6,83,73,62,29.78,29.70,16,5,17,0.00
2013-3-3,32.6,28.5,24.5,25.9,20.2,15.2,78,71,64,29.77,29.69,18,5,21,0.00
2013-3-4,35.6,31.2,27.4,24.0,21.9,19.6,76,68,59,29.91,29.75,21,7,24,0.00
2013-3-5,42.4,34.9,30.7,29.7,25.9,23.4,83,70,57,30.06,29.90,20,4,20,0.00
2013-3-6,43.7,36.0,27.4,33.8,28.7,24.0,89,75,58,30.09,30.00,23,5,27,0.00
2013-3-7,37.6,34.6,30.6,31.5,28.5,25.4,96,79,65,30.14,30.05,17,5,22,0.04
2013-3-8,38.4,32.9,29.6,33.7,29.9,26.5,98,89,68,30.28,30.06,19,6,19,0.23
2013-3-9,49.0,36.2,27.0,28.8,26.1,22.7,91,69,41,30.33,30.26,16,3,16,0.06
2013-3-10,53.7,38.9,20.1,34.2,27.8,18.2,94,68,40,30.37,30.20,12,3,15,0.01
2013-3-11,51.5,44.2,36.6,44.0,37.6,32.6,87,78,64,30.25,30.00,19,6,22,0.00
2013-3-12,53.9,49.5,40.4,53.0,46.8,35.4,97,91,82,30.01,29.65,21,4,24,1.44
2013-3-13,46.2,39.4,31.8,35.6,29.4,24.3,92,69,44,29.87,29.76,18,3,19,0.00
2013-3-14,35.6,29.4,26.0,28.8,16.4,10.3,77,58,49,29.91,29.83,25,7,30,0.00
2013-3-15,38.9,32.1,21.7,30.5,21.1,12.9,85,64,45,29.94,29.67,20,4,21,0.00
2013-3-16,37.7,32.3,26.3,29.2,18.6,14.4,80,57,43,29.92,29.77,16,2,17,0.00
2013-3-17,35.9,29.4,22.2,20.2,13.4,9.2,74,52,35,30.33,29.92,22,5,23,0.00
2013-3-18,38.2,28.2,16.2,26.7,14.7,8.7,93,60,33,30.45,30.08,12,2,13,0.00
2013-3-19,35.4,32.3,28.3,33.8,30.1,26.0,96,92,80,30.08,29.70,15,2,15,0.26
2013-3-20,40.3,32.3,24.3,26.0,22.1,19.2,92,67,45,29.83,29.75,18,3,21,0.13
2013-3-21,37.2,28.7,18.9,22.9,17.5,13.4,93,66,41,29.82,29.63,15,3,19,0.04
2013-3-22,38.0,30.7,20.1,26.1,20.8,14.3,86,67,53,29.83,29.69,17,2,20,0.01
2013-3-23,43.1,36.3,31.2,27.5,23.8,19.8,85,62,43,29.89,29.79,27,7,33,0.00
2013-3-24,43.6,36.4,27.0,26.1,23.9,21.9,82,61,48,29.92,29.74,16,4,18,0.00
2013-3-25,46.1,37.7,30.0,29.9,26.8,24.4,81,66,45,29.76,29.48,16,3,17,0.00
2013-3-26,46.7,38.5,29.0,31.5,28.1,24.7,92,68,44,29.85,29.59,13,2,15,0.00
2013-3-27,52.8,38.4,22.9,32.0,26.5,20.9,93,66,36,29.94,29.82,20,3,24,0.00
2013-3-28,47.1,42.4,36.9,36.8,33.0,29.8,79,70,62,30.10,29.93,13,3,15,0.00
2013-3-29,50.9,43.0,29.0,34.1,30.8,26.1,90,63,46,30.12,30.04,16,3,18,0.00
2013-3-30,56.0,43.0,28.6,33.9,28.3,23.1,91,60,30,30.15,30.04,15,2,17,0.00
2013-3-31,56.5,41.7,25.6,41.1,31.1,22.9,94,70,36,30.12,29.70,23,3,27,0.13
2013-4-1,57.4,42.7,32.5,47.0,34.8,17.6,98,76,42,29.89,29.56,23,4,30,0.02
2013-4-2,39.7,34.1,28.8,21.4,16.8,13.0,65,49,35,30.03,29.88,27,6,27,0.00
2013-4-3,42.9,35.1,29.5,22.4,18.2,15.9,71,50,36,30.29,30.02,28,7,32,0.00
2013-4-4,54.7,41.1,23.4,27.9,22.2,17.6,83,49,29,30.36,29.98,17,3,19,0.00
2013-4-5,57.7,46.0,37.7,29.3,25.6,22.5,63,46,30,29.99,29.74,22,6,24,0.00
2013-4-6,47.4,37.9,30.5,26.6,17.2,10.2,73,45,25,30.30,29.99,22,5,22,0.00
2013-4-7,59.1,47.0,29.7,42.3,30.1,21.4,76,53,32,30.26,29.89,24,6,28,0.00
2013-4-8,60.9,51.4,41.1,43.1,39.0,35.9,89,64,45,30.10,29.93,18,3,18,0.00
2013-4-9,68.1,59.9,50.4,51.4,46.3,41.4,77,61,44,30.00,29.83,19,5,22,0.00
2013-4-10,60.7,53.1,47.3,51.4,48.8,43.2,97,86,66,30.00,29.80,14,2,15,0.33
2013-4-11,47.2,42.6,32.8,45.8,34.5,26.0,96,75,49,30.14,29.86,17,5,17,0.13
2013-4-12,41.6,37.5,32.8,38.8,34.8,30.7,97,90,79,30.13,29.76,18,3,19,0.45
2013-4-13,52.8,44.4,37.2,42.4,38.5,35.1,96,81,57,29.93,29.80,10,1,11,0.04
2013-4-14,49.7,43.1,32.9,40.3,33.1,27.7,94,70,46,30.23,29.92,18,3,20,0.00
2013-4-15,62.6,46.3,29.9,39.2,33.2,27.8,93,64,41,30.36,30.21,14,2,15,0.00
2013-4-16,62.1,54.4,44.7,55.1,45.0,31.6,92,71,57,30.33,30.04,21,5,23,0.10
2013-4-17,64.0,54.0,43.1,54.2,40.2,35.3,94,63,36,30.31,30.11,16,4,19,0.08
2013-4-18,64.3,51.1,34.4,48.8,39.2,32.6,95,67,39,30.34,30.06,21,4,25,0.00
2013-4-19,73.3,63.3,46.1,63.5,58.0,44.4,94,84,70,30.06,29.53,24,6,25,0.53
2013-4-20,58.5,47.4,37.0,44.4,36.0,27.8,95,68,37,30.33,29.70,19,5,23,0.32
2013-4-21,51.0,41.0,32.4,30.6,23.3,19.4,78,50,33,30.64,30.33,20,4,20,0.00
2013-4-22,59.0,45.8,31.7,33.8,28.8,22.8,89,56,29,30.70,30.48,16,4,17,0.00
2013-4-23,52.8,43.3,31.3,41.0,34.8,27.8,89,72,62,30.53,30.13,9,2,10,0.00
2013-4-24,74.4,55.8,35.7,52.4,44.7,33.8,95,69,44,30.13,29.71,19,3,22,0.00
2013-4-25,59.7,51.2,40.6,53.5,35.7,30.3,92,57,36,30.26,29.75,22,5,28,0.05
2013-4-26,59.6,47.4,32.6,39.2,34.2,30.1,93,64,39,30.44,30.26,20,3,20,0.00
2013-4-27,66.3,49.9,30.9,42.2,34.2,28.8,96,60,28,30.45,30.26,14,2,15,0.00
2013-4-28,76.0,57.6,36.8,44.7,39.2,32.8,93,56,28,30.30,30.10,14,2,16,0.00
2013-4-29,59.6,55.5,51.6,51.3,45.3,33.0,95,71,41,30.22,30.17,11,2,14,0.07
2013-4-30,72.5,60.2,49.5,50.4,44.3,33.4,95,61,32,30.30,30.20,14,2,16,0.01
2013-5-1,77.0,60.9,41.9,43.0,36.8,31.4,80,44,22,30.44,30.30,14,2,16,0.00
2013-5-2,81.0,64.8,44.8,53.9,43.8,38.0,89,51,24,30.44,30.24,25,2,26,0.00
2013-5-3,71.7,61.8,51.7,44.2,37.8,32.6,63,42,24,30.47,30.29,17,3,18,0.00
2013-5-4,76.9,61.8,42.8,48.8,44.4,36.4,93,57,30,30.35,30.14,13,2,14,0.00
2013-5-5,74.6,59.1,41.3,45.4,40.2,35.4,93,54,27,30.29,30.12,14,2,14,0.00
2013-5-6,74.6,59.7,40.7,52.5,44.7,38.2,93,61,31,30.26,30.07,12,3,13,0.00
2013-5-7,81.2,67.0,49.9,56.5,53.0,47.6,93,64,36,30.15,30.01,14,2,14,0.00
2013-5-8,70.8,63.4,55.0,63.4,58.2,52.9,95,84,66,30.12,29.95,12,2,15,0.07
2013-5-9,69.5,60.1,49.3,58.5,55.1,48.1,98,85,63,30.00,29.85,9,1,12,0.00
2013-5-10,79.8,65.3,48.4,59.2,54.4,47.2,98,71,42,29.98,29.82,11,2,12,0.00
2013-5-11,69.0,64.6,57.9,65.2,60.6,52.2,96,87,71,29.82,29.65,14,3,16,0.36
2013-5-12,61.5,54.9,43.3,52.7,44.1,30.5,93,70,34,29.87,29.65,22,3,22,0.08
2013-5-13,53.6,47.5,38.4,35.8,31.0,26.8,84,53,41,30.09,29.86,21,4,26,0.00
2013-5-14,59.9,47.7,32.9,37.8,33.0,29.1,94,62,33,30.12,29.99,15,2,15,0.00
2013-5-15,67.4,51.5,33.1,54.9,43.8,31.3,95,77,51,30.05,29.60,18,2,19,0.04
2013-5-16,83.7,68.0,49.1,54.5,46.3,39.9,97,54,24,29.83,29.66,19,4,28,0.00
2013-5-17,70.5,60.7,50.6,49.9,43.3,40.1,81,54,37,30.20,29.83,18,4,21,0.00
2013-5-18,71.3,58.6,41.9,51.0,46.8,40.2,95,68,36,30.30,30.20,14,2,18,0.00
2013-5-19,59.0,57.6,55.2,56.7,54.3,50.7,95,89,83,30.30,30.13,11,2,12,0.04
2013-5-20,82.8,68.9,56.9,66.9,61.1,55.0,95,78,56,30.14,29.90,9,2,9,0.00
2013-5-21,90.0,73.2,60.3,71.7,66.4,58.8,97,81,54,29.93,29.75,20,2,23,0.07
2013-5-22,78.5,71.1,63.8,71.7,67.3,62.7,98,88,78,29.87,29.76,16,3,18,0.96
2013-5-23,76.2,70.5,66.5,69.7,66.3,62.3,96,87,76,29.82,29.70,18,3,18,0.35
2013-5-24,66.5,52.2,44.0,65.5,49.7,42.1,98,92,78,29.99,29.64,19,4,19,0.82
2013-5-25,47.9,45.9,43.8,44.6,42.7,39.9,95,89,78,29.95,29.89,26,7,29,0.58
2013-5-26,58.4,51.8,44.3,46.6,42.1,40.0,92,70,54,30.15,29.86,27,6,31,0.01
2013-5-27,74.4,58.0,37.6,45.9,41.1,35.8,95,59,28,30.21,30.09,15,2,17,0.00
2013-5-28,72.5,56.9,41.8,56.7,48.9,40.1,95,77,45,30.22,30.11,14,1,16,0.00
2013-5-29,82.0,66.6,57.5,71.9,62.9,56.4,98,89,69,30.12,29.89,26,2,40,1.62
2013-5-30,92.3,75.5,59.9,73.3,68.0,59.3,100,80,48,30.09,30.00,10,1,11,0.00
2013-5-31,93.5,79.6,63.7,73.4,67.7,62.8,98,71,41,30.10,29.90,14,2,16,0.00
2013-6-1,92.7,79.9,65.0,72.6,68.1,62.1,92,69,49,29.95,29.81,15,2,18,0.00
2013-6-2,88.6,76.9,68.0,72.4,69.7,66.1,95,80,57,29.83,29.69,18,3,21,0.25
2013-6-3,74.3,66.9,55.8,66.7,59.4,44.3,98,78,60,29.92,29.76,14,2,14,0.02
2013-6-4,73.5,61.3,45.6,48.1,45.3,42.7,93,59,37,30.12,29.92,19,3,23,0.00
2013-6-5,75.3,63.4,47.0,55.9,48.0,42.1,93,60,35,30.20,30.07,9,1,9,0.00
2013-6-6,72.9,62.8,55.1,58.2,53.3,48.3,96,73,45,30.13,30.02,16,2,16,0.21
2013-6-7,59.8,57.9,56.2,58.6,56.7,55.3,97,96,95,30.02,29.74,9,1,10,0.93
2013-6-8,76.7,63.8,54.5,63.6,58.2,53.6,98,83,59,30.04,29.69,13,3,15,0.36
2013-6-9,79.4,66.7,51.7,62.7,57.7,50.8,99,76,49,30.16,30.04,10,1,10,0.00
2013-6-10,65.2,60.7,54.7,64.3,59.4,53.5,98,96,93,30.16,29.84,5,1,9,0.66
2013-6-11,74.5,65.8,59.7,69.5,62.3,57.1,98,89,74,29.84,29.55,21,2,24,0.48
2013-6-12,73.7,65.6,57.1,58.5,55.2,53.1,94,70,52,29.83,29.65,20,4,24,0.00
2013-6-13,58.1,56.2,53.1,57.5,55.2,51.9,98,97,94,29.81,29.63,10,1,13,1.55
2013-6-14,75.7,63.2,53.0,60.4,56.6,51.5,98,81,49,29.86,29.66,15,3,18,0.31
2013-6-15,80.5,67.3,52.6,57.9,53.9,47.8,97,67,33,29.98,29.85,18,2,18,0.00
2013-6-16,75.0,65.5,51.9,64.5,57.5,50.3,96,77,60,29.96,29.69,16,2,16,0.00
2013-6-17,86.5,69.7,56.7,67.4,62.3,55.5,98,80,43,29.90,29.77,17,2,18,0.25
2013-6-18,67.4,61.9,58.0,63.7,58.5,53.8,99,89,74,29.94,29.86,13,2,13,0.26
2013-6-19,73.0,62.8,51.9,55.1,50.8,45.4,95,68,43,30.16,29.93,13,2,14,0.00
2013-6-20,80.3,65.6,47.7,59.9,54.0,46.6,97,70,45,30.27,30.15,9,1,11,0.00
2013-6-21,83.8,71.1,56.2,68.0,62.3,54.3,95,75,55,30.25,30.17,9,1,9,0.00
2013-6-22,84.8,74.4,59.6,67.2,63.1,57.7,94,70,50,30.20,30.05,14,2,15,0.00
2013-6-23,91.1,80.3,70.2,74.7,68.2,62.2,82,68,45,30.11,29.96,18,3,19,0.00
2013-6-24,92.7,78.3,67.0,76.0,70.3,64.9,94,78,54,30.02,29.89,18,2,19,0.00
2013-6-25,90.4,76.6,63.5,74.2,68.8,62.3,98,79,53,29.97,29.73,15,2,18,0.00
2013-6-26,84.8,76.3,69.4,72.5,70.2,68.1,96,82,60,29.80,29.73,11,1,13,0.00
2013-6-27,84.8,75.3,65.0,76.0,69.6,64.1,98,84,63,29.80,29.55,12,1,13,0.08
2013-6-28,84.5,76.0,69.4,71.9,69.4,66.8,95,81,61,29.56,29.39,18,4,21,0.43
2013-6-29,83.6,74.6,66.1,69.2,66.8,64.9,98,78,56,29.66,29.46,18,2,21,0.10
2013-6-30,87.5,73.6,65.9,74.0,68.9,64.7,98,86,60,29.90,29.65,13,2,17,0.24
2013-7-1,79.3,72.8,68.8,74.6,71.2,67.8,99,95,84,30.00,29.88,7,1,9,0.32
2013-7-2,84.8,77.4,72.0,76.5,73.6,70.9,98,89,73,30.11,29.99,13,2,17,0.52
2013-7-3,86.6,79.1,73.4,76.3,73.2,70.9,94,83,70,30.18,30.10,12,2,14,0.00
2013-7-4,91.0,82.0,71.3,77.1,74.0,70.0,98,78,61,30.19,30.07,15,2,17,0.00
2013-7-5,92.5,83.8,75.4,77.3,74.5,72.5,91,75,58,30.15,30.01,14,2,15,0.00
2013-7-6,90.4,83.0,74.0,75.6,73.6,71.8,94,74,56,30.08,29.98,9,1,9,0.00
2013-7-7,93.0,78.5,71.3,79.9,74.3,70.3,98,88,61,30.03,29.88,12,1,13,0.20
2013-7-8,88.2,78.5,71.2,74.0,71.4,67.3,98,80,55,30.01,29.91,12,1,12,0.00
2013-7-9,88.7,77.4,68.4,74.5,70.9,67.3,98,82,59,30.06,29.94,11,1,12,0.00
2013-7-10,84.1,78.0,73.2,77.1,73.5,69.9,93,86,75,29.97,29.74,13,2,15,0.16
2013-7-11,83.7,77.4,71.2,73.4,67.8,61.0,95,74,50,29.94,29.73,12,2,13,0.00
2013-7-12,84.4,74.4,64.3,68.0,63.8,60.9,91,71,52,30.14,29.94,16,2,16,0.00
2013-7-13,76.5,71.5,65.1,72.9,67.1,59.4,96,87,64,30.28,30.14,9,1,10,0.20
2013-7-14,91.1,80.2,71.3,76.9,73.5,70.0,98,82,58,30.32,30.18,9,1,11,0.00
2013-7-15,93.7,83.5,73.5,76.5,72.5,69.4,97,72,47,30.22,30.11,12,1,12,0.00
2013-7-16,93.1,81.7,67.9,76.0,70.5,66.3,95,72,45,30.21,30.11,14,1,14,0.00
2013-7-17,93.8,82.7,69.9,76.2,72.9,68.6,97,75,50,30.20,29.99,13,1,13,0.00
2013-7-18,96.8,85.0,74.2,77.9,74.0,71.3,92,71,46,30.03,29.91,10,1,10,0.00
2013-7-19,98.0,85.4,72.1,79.0,74.4,70.5,96,72,49,29.93,29.69,17,2,19,0.00
2013-7-20,92.3,80.7,70.1,77.0,71.2,65.7,92,74,50,29.83,29.67,15,2,17,0.00
2013-7-21,84.0,74.7,62.6,69.0,65.0,60.8,94,73,54,29.96,29.83,11,1,11,0.00
2013-7-22,86.2,74.5,66.0,72.8,67.2,59.2,97,79,57,29.99,29.78,9,1,10,0.68
2013-7-23,83.5,75.4,70.9,75.5,72.4,70.2,99,91,68,29.78,29.53,12,1,12,1.22
2013-7-24,77.0,71.2,61.5,72.1,63.0,51.9,99,77,56,29.99,29.58,17,3,19,0.00
2013-7-25,74.1,64.6,55.0,59.9,54.8,50.1,86,71,57,30.09,29.99,11,2,12,0.00
2013-7-26,78.5,69.0,62.2,64.0,59.3,55.0,93,72,56,30.06,29.97,12,2,13,0.00
2013-7-27,84.8,71.2,57.8,67.4,62.4,57.1,99,77,48,30.04,29.91,12,2,15,0.00
2013-7-28,74.2,69.7,66.9,71.5,66.8,63.3,96,91,83,29.97,29.90,10,1,11,0.21
2013-7-29,83.0,73.7,66.0,69.5,64.8,58.8,98,76,55,30.09,29.92,11,2,12,0.00
2013-7-30,79.6,68.9,56.6,62.8,59.9,55.3,97,75,52,30.15,30.06,11,1,11,0.00
2013-7-31,80.8,70.6,57.6,64.7,60.7,56.3,97,73,49,30.16,30.00,9,1,10,0.00
2013-8-1,76.3,68.3,62.3,67.6,64.1,60.1,96,87,69,30.00,29.82,15,2,18,0.11
2013-8-2,83.8,70.8,61.0,68.1,63.7,59.1,99,81,45,29.87,29.79,15,1,20,0.20
2013-8-3,82.3,70.6,61.4,66.0,61.4,55.5,98,75,43,29.87,29.78,12,1,14,0.00
2013-8-4,77.5,66.6,56.0,63.9,57.2,52.6,97,74,46,29.95,29.82,19,2,19,0.28
2013-8-5,76.6,66.7,55.7,56.6,52.0,45.5,90,62,37,30.04,29.94,20,3,20,0.00
2013-8-6,80.4,66.4,49.4,60.5,54.9,48.1,100,70,41,30.11,30.03,10,1,13,0.00
2013-8-7,76.5,70.1,64.3,66.4,62.6,58.6,91,78,66,30.13,30.02,14,2,14,0.00
2013-8-8,83.7,76.0,69.3,72.8,70.1,65.9,93,82,67,30.02,29.94,15,3,17,0.00
2013-8-9,80.9,73.8,71.0,75.7,72.2,70.2,99,95,81,29.95,29.76,13,1,16,1.86
2013-8-10,82.8,72.3,58.6,70.1,61.1,51.2,98,71,44,30.05,29.84,17,3,20,0.00
2013-8-11,79.8,66.4,51.3,65.4,57.0,49.8,96,74,49,30.12,29.98,10,1,10,0.00
2013-8-12,80.7,70.5,58.4,65.5,61.8,57.3,99,76,52,30.03,29.88,8,1,10,0.00
2013-8-13,76.5,69.3,64.5,69.6,65.6,61.2,97,88,78,29.88,29.64,11,2,16,0.82
2013-8-14,72.7,64.6,54.1,61.2,54.6,51.6,92,71,53,30.00,29.75,21,4,24,0.00
2013-8-15,77.7,64.3,51.4,59.1,54.0,50.0,96,73,43,30.12,30.00,14,2,16,0.00
2013-8-16,80.7,66.1,54.1,63.2,57.3,52.7,97,77,45,30.19,30.11,10,1,11,0.00
2013-8-17,81.3,67.0,54.4,63.2,57.8,53.0,98,76,40,30.29,30.19,7,1,9,0.00
2013-8-18,75.0,66.3,57.2,66.4,61.9,56.0,98,87,66,30.26,30.09,5,0,6,0.00
2013-8-19,81.4,69.8,59.6,67.6,63.7,58.9,98,83,56,30.09,29.98,7,1,8,0.00
2013-8-20,86.0,70.7,57.4,68.4,63.1,56.5,98,80,50,30.11,30.01,10,1,10,0.00
2013-8-21,87.9,73.2,59.6,69.5,64.8,58.7,98,78,49,30.16,30.01,9,1,10,0.00
2013-8-22,86.2,76.4,63.0,73.7,69.2,61.6,96,80,64,30.03,29.81,10,2,12,0.00
2013-8-23,78.0,70.9,59.5,67.6,60.1,51.3,95,71,42,30.15,29.86,13,2,13,0.00
2013-8-24,77.8,63.7,49.1,58.8,53.5,47.7,96,73,40,30.33,30.15,11,1,13,0.00
2013-8-25,82.2,66.5,49.5,62.5,56.7,48.3,98,74,44,30.39,30.16,12,2,12,0.00
2013-8-26,74.0,69.3,63.1,69.5,64.2,57.9,98,84,68,30.17,29.87,9,1,15,0.18
2013-8-27,83.3,73.2,67.5,72.7,69.4,66.6,99,89,62,29.90,29.81,10,1,12,0.52
2013-8-28,88.4,73.3,62.8,73.3,67.9,62.1,100,85,55,29.90,29.79,15,1,16,0.01
2013-8-29,82.0,72.0,65.1,69.5,66.7,64.2,98,85,64,30.02,29.89,6,1,7,0.00
2013-8-30,85.1,74.8,67.0,71.2,67.9,64.3,93,80,60,30.00,29.79,9,1,10,0.00
2013-8-31,84.7,76.3,71.2,75.5,72.1,69.8,97,87,74,29.80,29.71,18,2,23,0.09
2013-9-1,84.6,74.9,68.5,75.4,71.7,67.8,99,91,72,29.83,29.76,7,1,10,0.12
2013-9-2,80.5,72.8,66.6,74.2,70.6,65.4,99,93,79,29.79,29.65,12,2,14,0.51
2013-9-3,77.2,67.8,62.3,66.8,62.6,57.9,99,85,58,29.86,29.71,14,1,16,0.04
2013-9-4,81.9,69.7,57.7,63.6,59.4,55.9,96,73,44,29.95,29.85,12,2,15,0.02
2013-9-5,72.7,64.0,53.1,61.4,53.1,43.1,96,71,37,30.17,29.87,16,2,19,0.01
2013-9-6,68.5,56.0,43.3,52.6,46.4,41.3,97,74,43,30.28,30.10,10,1,11,0.01
2013-9-7,76.6,61.6,46.4,64.3,54.3,45.0,96,79,47,30.11,29.85,9,1,10,0.01
2013-9-8,73.8,65.3,52.6,64.2,55.5,45.4,96,73,46,30.12,29.79,20,3,24,0.00
2013-9-9,70.6,58.5,43.1,55.8,49.3,41.7,97,74,49,30.24,30.09,13,2,15,0.00
2013-9-10,80.9,71.5,62.6,74.5,67.2,55.6,97,86,78,30.11,29.96,16,4,19,0.03
2013-9-11,93.9,80.5,69.5,80.1,74.2,68.3,97,83,61,30.06,29.91,21,2,22,0.01
2013-9-12,85.1,73.1,67.8,76.3,70.2,67.1,98,91,74,29.94,29.65,16,2,23,0.01
2013-9-13,73.5,65.7,56.2,67.1,60.4,47.6,99,84,69,29.86,29.61,16,3,18,0.02
2013-9-14,63.1,57.5,52.4,51.4,48.2,45.5,80,71,61,30.11,29.85,14,3,16,0.00
2013-9-15,69.9,56.3,42.2,55.0,49.0,41.0,97,78,52,30.20,30.05,7,1,10,0.00
2013-9-16,66.7,57.6,48.2,58.4,52.5,41.9,97,84,63,30.31,30.02,14,2,16,0.12
2013-9-17,63.0,51.0,38.9,48.2,43.2,37.5,96,77,51,30.47,30.31,11,2,15,0.00
2013-9-18,72.0,57.8,40.5,53.2,47.6,39.3,96,73,44,30.34,30.13,7,1,8,0.00
2013-9-19,77.2,59.0,42.8,58.1,50.9,41.7,97,78,45,30.17,30.03,13,1,13,0.00
2013-9-20,79.7,62.3,46.0,62.2,54.3,44.9,99,78,46,30.09,29.93,13,1,13,0.00
2013-9-21,73.6,66.2,58.7,65.5,60.6,55.5,95,83,68,29.97,29.60,18,4,21,0.15
2013-9-22,67.0,59.7,52.8,65.5,51.5,43.4,98,76,57,29.92,29.62,20,4,22,0.49
2013-9-23,61.4,53.1,45.5,45.3,42.8,40.0,85,69,52,30.07,29.91,16,4,19,0.00
2013-9-24,68.8,54.4,38.3,47.5,43.4,36.7,95,69,43,30.07,29.86,11,2,13,0.00
2013-9-25,70.2,55.1,40.2,53.4,48.0,38.8,100,79,53,29.97,29.87,10,1,11,0.00